Content
SEND FEEDBACK

Daily
Averages
Monthly
Summary
United States of America

ASHEVILLE, NORTH CAROLINA


Home > North America > United States > North Carolina
Elevation: 2240 feet     Latitude: 35 36N     Longitude: 082 32W

WEATHER
 
SELECT A DAY
Number of Records: 225,611;   Date Range: 1/1/95 - 7/22/14
 
SHARE

PRINT THIS DATA

[ ← Previous Day ]
WEATHER ALMANAC - APRIL 8, 2013
[ Next Day → ]
[ °C ]   °F
Weather ElementAverageHighLow
Temperature61.5 °F73.4 °F (2:28 pm)43 °F (5:54 am)
Dewpoint46.1 °F50 °F (10:54 am)41 °F (3:54 am)
Humidity60 %93 % (5:54 am)41 % (1:43 pm)
Wind Speed9.3 mph19.6 mph (1:54 pm)
Wind Gust27.6 mph (2:00 pm)
Weather ElementAverage
Visibility10 mi
Wind DirectionESE (116.3 °)

Weather ElementTotal
Precipitation---
Heating Degree Days6.8 (Base 65)
Growing Degree Days8.2 (Base 50)
Averaged from 27 records on April 8, 2013
WEATHER CONDITIONS BREAKOUT
WIND DIRECTION BREAKOUT
WEATHER BY HOUR - APRIL 8, 2013
[ °C ]   °F
Local TimeTemperatureDewpointHumidityBarometerVisibilityWind DirectionWind SpeedGust SpeedPrecipitationEventsConditions
1:54 AM48.9 °F42.1 °F77 %10.0 miCalmClear
2:54 AM46.9 °F42.1 °F83 %10.0 miCalmClear
3:54 AM45.0 °F41.0 °F86 %10.0 miCalmClear
4:54 AM44.1 °F41.0 °F89 %10.0 miCalmClear
5:54 AM43.0 °F41.0 °F93 %10.0 miCalmClear
6:54 AM44.1 °F41.0 °F89 %10.0 miCalmClear
7:54 AM44.1 °F41.0 °F89 %10.0 miCalmClear
8:54 AM48.0 °F43.0 °F83 %30.15 in10.0 miCalmClear
9:54 AM57.0 °F46.0 °F67 %30.14 in10.0 miCalmClear
10:54 AM64.9 °F50.0 °F58 %30.12 in10.0 miSSE (160°)9.2 mphClear
11:54 AM70.0 °F50.0 °F49 %30.11 in10.0 miSouth (190°)13.8 mph21.9 mphClear
12:54 PM71.1 °F46.9 °F42 %30.09 in10.0 miSouth (190°)18.4 mph25.3 mphMostly Cloudy
1:43 PM71.6 °F46.4 °F41 %30.13 in10.0 miSouth (180°)18.4 mph25.3 mphTornadoFunnel Cloud
1:54 PM71.1 °F46.9 °F42 %30.08 in10.0 miSouth (190°)19.6 mph26.5 mphTornadoFunnel Cloud
2:00 PM71.6 °F48.2 °F43 %30.12 in10.0 miSouth (180°)19.6 mph27.6 mphClear
2:02 PM71.6 °F46.4 °F41 %30.12 in10.0 miSouth (180°)18.4 mph27.6 mphClear
2:28 PM73.4 °F48.2 °F41 %30.12 in10.0 miSouth (180°)18.4 mph26.5 mphClear
2:54 PM72.0 °F48.9 °F44 %30.07 in10.0 miSSW (210°)18.4 mph26.5 mphClear
3:54 PM72.0 °F48.9 °F44 %30.06 in10.0 miSSW (200°)18.4 mph25.3 mphClear
4:54 PM72.0 °F48.0 °F43 %30.06 in10.0 miSSW (200°)18.4 mph26.5 mphClear
5:54 PM71.1 °F48.0 °F44 %30.06 in10.0 miSouth (190°)13.8 mphClear
6:54 PM69.1 °F48.0 °F47 %30.07 in10.0 miSSW (200°)15.0 mphClear
7:54 PM66.9 °F48.0 °F51 %30.09 in10.0 miSouth (190°)11.5 mphClear
8:54 PM64.9 °F48.0 °F54 %30.10 in10.0 miSSW (200°)10.4 mphClear
9:54 PM64.9 °F48.0 °F54 %30.10 in10.0 miSSE (150°)5.8 mphClear
10:54 PM63.0 °F48.0 °F58 %30.10 in10.0 miCalmClear
11:54 PM59.0 °F48.9 °F69 %30.09 in10.0 miSSE (150°)4.6 mphClear
Hourly data recorded from KAVL, located miles away from Asheville, North Carolina







STORIES FROM OUR PARTNERS